Regional Weather Roundup
Issued by NWS Northern Indiana

Home | Current Version | Previous Version | Graphics & Text | Print | Product List | Glossary On
Versions: 1 2 3 4 5 6 7 8 9 10 11 12 13 14 15 16 17 18 19 20 21 22 23 24 25 26 27 28 29 30 31 32 33 34 35 36 37 38 39 40 41 42 43 44 45 46 47 48 49 50
826
ASUS43 KIWX 140500
RWRIWX

KIWX WEATHER ROUNDUP
NATIONAL WEATHER SERVICE NORTHERN INDIANA
1200 AM EST THU DEC 14 2017

NOTE: "FAIR" INDICATES FEW OR NO CLOUDS BELOW 12,000 FEET WITH NO
SIGNIFICANT WEATHER AND/OR OBSTRUCTIONS TO VISIBILITY.

* THESE STATIONS ARE NOT UNDER NWS QUALITY CONTROL. THEY ALSO MAY NOT
  REPORT WEATHER SUCH AS PRECIPITATION OR FOG.

INZ001>027-140600-
NORTHERN INDIANA

CITY           SKY/WX    TMP DP  RH WIND       PRES   REMARKS
MICHIGAN CITY* FLURRIES  28  21  74 N20G29    29.68R WCI  15
LAPORTE*       LGT SNOW  27  22  80 N18G26    29.66R WCI  14
KNOX*          CLOUDY    30  23  74 N20G26    29.65R WCI  18
SOUTH BEND     MOCLDY    19  17  92 N14       29.66R WCI   6
GOSHEN         MIX PCPN  22  17  81 NW20G28   29.61R WCI   7
MONTICELLO*    CLOUDY    29  19  67 NW20G28   29.67R WCI  16
WARSAW*        CLOUDY    27  19  74 NW17G32   29.60R WCI  14
AUBURN*        FLURRIES  25  19  80 NW17G23   29.55R WCI  11
FORT WAYNE     LGT SNOW  30  25  81 NW23G32   29.55R WCI  17
PERU/GRISSOM   CLOUDY    29  21  73 NW22G30   29.62R WCI  15

$$
INZ028>050-140600-
CENTRAL INDIANA

CITY           SKY/WX    TMP DP  RH WIND       PRES   REMARKS
LAFAYETTE      CLOUDY    28  19  69 NW18G28   29.70R WCI  15
KOKOMO*        FLURRIES  29  21  72 W22G29    29.63R WCI  15
MUNCIE*        CLOUDY    32  22  66 NW18G35   29.59R WCI  20
INDIANAPOLIS   CLOUDY    32  23  69 NW25G35   29.68R WCI  19

$$
MIZ043>046-050>051-056>058-064>065-071>073-077>080-140600-
SOUTHWEST LOWER MICHIGAN

CITY           SKY/WX    TMP DP  RH WIND       PRES   REMARKS
BATTLE CREEK   LGT SNOW  19  16  88 N13       29.61R FOG     WCI   6
BENTON HARBOR  LGT SNOW  22  17  81 NE7       29.69R WCI  13
COLDWATER*     CLOUDY    20  17  86 N13       29.58R WCI   7
HILLSDALE*     LGT SNOW  21  18  86 N14G20    29.52R WCI   8
HOLLAND        PTCLDY    19  13  77 N10G20    29.70R WCI   7
GRAND RAPIDS   CLOUDY    18  13  80 N15       29.67R WCI   4
KALAMAZOO      LGT SNOW  20  15  81 N15       29.63R WCI   6
STURGIS*       LGT SNOW  19  17  88 N13G22    29.59R WCI   7
THREE RIVERS*  LGT SNOW  22  17  83 N10       29.62R WCI  11

$$
OHZ001>008-015>018-024>025-140600-
NORTHWEST OHIO

CITY           SKY/WX    TMP DP  RH WIND       PRES   REMARKS
DEFIANCE       LGT SNOW  24  19  81 N16       29.52R WCI  11
FINDLAY        LGT SNOW  31  26  82 W23G35    29.43R VSB 1   WCI  18
TOLEDO EXPRESS LGT SNOW  24  23  96 N15       29.48R FOG     WCI  11
TOLEDO METCALF LGT SNOW  27  24  89 N12G21    29.47R VSB 3/4 WCI  17
LIMA           CLOUDY    31  25  78 W33G41    29.47R WCI  15

$$
AND FOR LAKE MICHIGAN COASTAL AND OPEN LAKE BUOY OBSERVATIONS

STATION/POSITION TEMP    WIND        PRES    VSBY  WAVE
                 AIR SEA DIR/SP/G                  HT/PER
                 (F)     (DEG/KT/KT) (MB)    (MI)  (FT/S)
CALUMET HARBOR    30     330/ 22/ 27 1005.4
MICHIGAN CITY     29     350/ 29/ 36   N/A
BURNS HARBOR      31     350/ 26/ 33 1005.8R
SAINT JOSEPH      26      20/ 19/ 24 1004.1

$$
&&




USA.gov is the U.S. government's official web portal to all federal, state and local government web resources and services.